Year,Month,Day,Hour,Minute,Value (Times are PST for temperature in C)
2007,06,06,13,40,13.20
2007,06,06,13,41,13.20
2007,06,06,13,42,13.20
2007,06,06,13,43,13.20
2007,06,06,13,44,13.10
2007,06,06,13,45,13.10
2007,06,06,13,46,13.10
2007,06,06,13,47,13.10
2007,06,06,13,48,13.10
2007,06,06,13,49,13.00
2007,06,06,13,50,13.00
2007,06,06,13,51,13.10
2007,06,06,13,52,13.10
2007,06,06,13,53,12.90
2007,06,06,13,54,12.90
2007,06,06,13,55,12.90
2007,06,06,13,56,12.90
2007,06,06,13,57,12.80
2007,06,06,13,58,12.80
2007,06,06,13,59,12.80
2007,06,06,14,00,12.80
2007,06,06,14,01,12.80
2007,06,06,14,02,12.80
2007,06,06,14,03,12.90
2007,06,06,14,04,13.00
2007,06,06,14,05,13.00
2007,06,06,14,19,12.50
2007,06,06,14,20,12.40
2007,06,06,14,21,12.40
2007,06,06,14,22,12.40
2007,06,06,14,23,12.40
2007,06,06,14,24,12.40
2007,06,06,14,25,12.40
2007,06,06,14,26,12.30
2007,06,06,14,27,12.30
2007,06,06,14,28,12.30
2007,06,06,14,29,12.30
2007,06,06,14,30,12.20
2007,06,06,14,31,12.20
2007,06,06,14,32,12.20
2007,06,06,14,33,12.20
2007,06,06,14,34,12.20
2007,06,06,14,35,12.20
2007,06,06,14,36,12.20
2007,06,06,14,37,12.20
2007,06,06,14,38,12.10
2007,06,06,14,39,12.10
2007,06,06,14,40,12.10
2007,06,06,14,41,12.10
2007,06,06,14,42,12.10
2007,06,06,14,43,12.10
2007,06,06,14,44,12.10
2007,06,06,14,45,12.10
2007,06,06,14,46,12.10
2007,06,06,14,47,12.20
2007,06,06,14,48,12.20
2007,06,06,14,49,12.10
2007,06,06,14,50,12.00
2007,06,06,14,51,12.00
2007,06,06,14,52,11.90
2007,06,06,14,53,11.90
2007,06,06,14,54,11.80
2007,06,06,14,55,11.80
2007,06,06,14,56,11.80
2007,06,06,14,57,11.80
2007,06,06,14,58,11.80
2007,06,06,14,59,11.80
2007,06,06,15,00,11.80
2007,06,06,15,01,11.80
2007,06,06,15,02,11.70
2007,06,06,15,03,11.70
2007,06,06,15,04,11.70
2007,06,06,15,05,11.70
2007,06,06,15,06,11.70
2007,06,06,15,07,11.70
2007,06,06,15,08,11.70
2007,06,06,15,09,11.60
2007,06,06,15,10,11.60
2007,06,06,15,11,11.60
2007,06,06,15,12,11.60
2007,06,06,15,13,11.60
2007,06,06,15,14,11.60
2007,06,06,15,15,11.50
2007,06,06,15,16,11.40
2007,06,06,15,17,11.40
2007,06,06,15,18,11.40
2007,06,06,15,19,11.40
2007,06,06,15,20,11.40
2007,06,06,15,21,11.30
2007,06,06,15,22,11.20
2007,06,06,15,23,11.20
2007,06,06,15,24,11.20
2007,06,06,15,25,11.20
2007,06,06,15,26,11.20
2007,06,06,15,27,11.20
2007,06,06,15,28,11.20
2007,06,06,15,29,11.20
2007,06,06,15,30,11.20
2007,06,06,15,31,11.20
2007,06,06,15,32,11.20
2007,06,06,15,33,11.20
2007,06,06,15,34,11.20
2007,06,06,15,35,11.20
2007,06,06,15,36,11.20
2007,06,06,15,37,11.20
2007,06,06,15,38,11.20
2007,06,06,15,39,11.20
2007,06,06,15,40,11.20
2007,06,06,15,41,11.20
2007,06,06,15,42,11.20
2007,06,06,15,43,11.20
2007,06,06,15,44,11.20
2007,06,06,15,45,11.30
2007,06,06,15,46,11.30
2007,06,06,15,47,11.30
2007,06,06,15,48,11.40
2007,06,06,15,49,11.40
2007,06,06,15,50,11.40
2007,06,06,15,51,11.40
2007,06,06,15,52,11.50
2007,06,06,15,53,11.60
2007,06,06,15,54,11.60
2007,06,06,15,55,11.60
2007,06,06,15,56,11.60
2007,06,06,15,57,11.60
2007,06,06,15,58,11.60
2007,06,06,15,59,11.60
2007,06,06,16,00,11.60
2007,06,06,16,01,11.60
2007,06,06,16,02,11.60
2007,06,06,16,03,11.60
2007,06,06,16,04,11.60
2007,06,06,16,05,11.60
2007,06,06,16,06,11.70
2007,06,06,16,07,11.70
2007,06,06,16,08,11.80
2007,06,06,16,09,11.80
2007,06,06,16,10,11.80
2007,06,06,16,11,11.80
2007,06,06,16,12,11.80
2007,06,06,16,13,11.80
2007,06,06,16,14,11.80
2007,06,06,16,15,11.80
2007,06,06,16,16,11.80
2007,06,06,16,17,11.80
2007,06,06,16,18,11.80
2007,06,06,16,19,11.80
2007,06,06,16,20,11.80
2007,06,06,16,21,11.80
2007,06,06,16,22,11.80
2007,06,06,16,23,11.80
2007,06,06,16,24,11.80
2007,06,06,16,25,11.90
2007,06,06,16,26,11.90
2007,06,06,16,27,11.90
2007,06,06,16,28,11.90
2007,06,06,16,29,11.90
2007,06,06,16,30,11.90
2007,06,06,16,31,11.90
2007,06,06,16,32,11.90
2007,06,06,16,33,11.90
2007,06,06,16,34,11.80
2007,06,06,16,35,11.80
2007,06,06,16,36,11.80
2007,06,06,16,37,11.80
2007,06,06,16,38,11.80
2007,06,06,16,39,11.80
2007,06,06,16,40,11.80
2007,06,06,16,41,11.80
2007,06,06,16,42,11.80
2007,06,06,16,43,11.80
2007,06,06,16,44,11.80
2007,06,06,16,45,11.80
2007,06,06,16,46,11.80
2007,06,06,16,47,11.70
2007,06,06,16,48,11.70
2007,06,06,16,49,11.80
2007,06,06,16,50,11.80
2007,06,06,16,51,11.80
2007,06,06,16,52,11.80
2007,06,06,16,53,11.80
2007,06,06,16,54,11.80
2007,06,06,16,55,11.80
2007,06,06,16,56,11.80
2007,06,06,16,57,11.70
2007,06,06,16,58,11.70
2007,06,06,16,59,11.60
2007,06,06,17,00,11.60
2007,06,06,17,01,11.70
2007,06,06,17,02,11.70
2007,06,06,17,03,11.70
2007,06,06,17,04,11.80
2007,06,06,17,05,11.80
2007,06,06,17,06,11.80
2007,06,06,17,07,11.80
2007,06,06,17,08,11.80
2007,06,06,17,09,11.80
2007,06,06,17,10,11.80
2007,06,06,17,11,11.80
2007,06,06,17,12,11.80
2007,06,06,17,13,11.80
2007,06,06,17,14,11.90
2007,06,06,17,15,11.80
2007,06,06,17,16,11.80
2007,06,06,17,17,11.80
2007,06,06,17,18,11.80
2007,06,06,17,19,11.80
2007,06,06,17,20,11.80
2007,06,06,17,21,11.80
2007,06,06,17,22,11.80
2007,06,06,17,23,11.80
2007,06,06,17,24,11.80
2007,06,06,17,25,11.80
2007,06,06,17,26,11.80
2007,06,06,17,27,11.80
2007,06,06,17,28,11.80
2007,06,06,17,29,11.80
2007,06,06,17,30,11.80
2007,06,06,17,31,11.80
2007,06,06,17,32,11.80
2007,06,06,17,33,11.80
2007,06,06,17,34,11.80
2007,06,06,17,35,11.80
2007,06,06,17,36,11.80
2007,06,06,17,37,11.80
2007,06,06,17,38,11.80
2007,06,06,17,39,11.80
2007,06,06,17,40,11.80
2007,06,06,17,41,11.80
2007,06,06,17,42,11.80
2007,06,06,17,43,11.80
2007,06,06,17,44,11.80
2007,06,06,17,45,11.90
2007,06,06,17,46,11.90
2007,06,06,17,47,12.00
2007,06,06,17,48,12.00
2007,06,06,17,49,12.00
2007,06,06,17,50,12.00
2007,06,06,17,51,12.00
2007,06,06,17,52,12.00
2007,06,06,17,53,12.00
2007,06,06,17,54,11.90
2007,06,06,17,55,11.80
2007,06,06,17,56,11.90
2007,06,06,17,57,11.90
2007,06,06,17,58,11.90
2007,06,06,17,59,11.90
2007,06,06,18,00,12.00
2007,06,06,18,01,12.00
2007,06,06,18,02,12.10
2007,06,06,18,03,12.10
2007,06,06,18,04,12.00
2007,06,06,18,05,11.90
2007,06,06,18,06,11.80
2007,06,06,18,07,11.80
2007,06,06,18,08,11.80
2007,06,06,18,09,11.80
2007,06,06,18,10,11.80
2007,06,06,18,11,11.80
2007,06,06,18,12,11.80
2007,06,06,18,13,11.70
2007,06,06,18,14,11.70
2007,06,06,18,15,11.70
2007,06,06,18,16,11.70
2007,06,06,18,17,11.70
2007,06,06,18,18,11.70
2007,06,06,18,19,11.70
2007,06,06,18,20,11.60
2007,06,06,18,21,11.60
2007,06,06,18,22,11.60
2007,06,06,18,23,11.60
2007,06,06,18,24,11.60
2007,06,06,18,25,11.60
2007,06,06,18,26,11.60
2007,06,06,18,27,11.60
2007,06,06,18,28,11.60
2007,06,06,18,29,11.60
2007,06,06,18,30,11.60
2007,06,06,18,31,11.50
2007,06,06,18,32,11.50
2007,06,06,18,33,11.60
2007,06,06,18,34,11.60
2007,06,06,18,35,11.60
2007,06,06,18,36,11.60
2007,06,06,18,37,11.60
2007,06,06,18,38,11.60
2007,06,06,18,39,11.60
2007,06,06,18,40,11.60
2007,06,06,18,41,11.60
2007,06,06,18,42,11.60
2007,06,06,18,43,11.60
2007,06,06,18,44,11.60
2007,06,06,18,45,11.60
2007,06,06,18,46,11.60
2007,06,06,18,47,11.60
2007,06,06,18,48,11.60
2007,06,06,18,49,11.60
2007,06,06,18,50,11.60
2007,06,06,18,51,11.60
2007,06,06,18,52,11.60
2007,06,06,18,53,11.60
2007,06,06,18,54,11.60
2007,06,06,18,55,11.60
2007,06,06,18,56,11.60
2007,06,06,18,57,11.60
2007,06,06,18,58,11.60
2007,06,06,18,59,11.60
2007,06,06,19,00,11.60
2007,06,06,19,01,11.60
2007,06,06,19,02,11.60
2007,06,06,19,03,11.60
2007,06,06,19,04,11.60
2007,06,06,19,05,11.60
2007,06,06,19,06,11.60
2007,06,06,19,07,11.60
2007,06,06,19,08,11.50
2007,06,06,19,09,11.40
2007,06,06,19,10,11.40
2007,06,06,19,11,11.40
2007,06,06,19,12,11.40
2007,06,06,19,13,11.40
2007,06,06,19,14,11.40
2007,06,06,19,15,11.40
2007,06,06,19,16,11.40
2007,06,06,19,17,11.40
2007,06,06,19,18,11.40
2007,06,06,19,19,11.40
2007,06,06,19,20,11.30
2007,06,06,19,21,11.30
2007,06,06,19,22,11.30
2007,06,06,19,23,11.30
2007,06,06,19,24,11.30
2007,06,06,19,25,11.30
2007,06,06,19,26,11.30
2007,06,06,19,27,11.20
2007,06,06,19,28,11.20
2007,06,06,19,29,11.20
2007,06,06,19,30,11.20
2007,06,06,19,31,11.20
2007,06,06,19,32,11.20
2007,06,06,19,33,11.20
2007,06,06,19,34,11.20
2007,06,06,19,35,11.20
2007,06,06,19,36,11.20
2007,06,06,19,37,11.20
2007,06,06,19,38,11.20
2007,06,06,19,39,11.20
2007,06,06,19,40,11.20
2007,06,06,19,41,11.10
2007,06,06,19,42,11.10
2007,06,06,19,43,11.10
2007,06,06,19,44,11.10
2007,06,06,19,45,11.10
2007,06,06,19,46,11.10
2007,06,06,19,47,11.00
2007,06,06,19,48,10.90
2007,06,06,19,49,10.90
2007,06,06,19,50,10.90
2007,06,06,19,51,10.90
2007,06,06,19,52,10.90
2007,06,06,19,53,10.90
2007,06,06,19,54,10.90
2007,06,06,19,55,10.90
2007,06,06,19,56,10.90
2007,06,06,19,57,10.90
2007,06,06,19,58,10.90
2007,06,06,19,59,10.90
2007,06,06,20,00,10.90
2007,06,06,20,01,10.90
2007,06,06,20,02,10.90
2007,06,06,20,03,10.90
2007,06,06,20,04,10.90
2007,06,06,20,05,10.90
2007,06,06,20,06,10.90
2007,06,06,20,07,10.90
2007,06,06,20,08,10.90
2007,06,06,20,09,10.90
2007,06,06,20,10,10.90
2007,06,06,20,11,10.90
2007,06,06,20,12,10.90
2007,06,06,20,13,10.90
2007,06,06,20,14,10.90
2007,06,06,20,15,10.90
2007,06,06,20,16,10.90
2007,06,06,20,17,10.90
2007,06,06,20,18,10.90
2007,06,06,20,19,10.90
2007,06,06,20,20,10.90
2007,06,06,20,21,10.90
2007,06,06,20,22,10.90
2007,06,06,20,23,10.90
2007,06,06,20,24,10.90
2007,06,06,20,25,10.90
2007,06,06,20,26,10.90
2007,06,06,20,27,10.90
2007,06,06,20,28,10.90
2007,06,06,20,29,10.90
2007,06,06,20,30,10.90
2007,06,06,20,31,10.90
2007,06,06,20,32,10.90
2007,06,06,20,33,10.90
2007,06,06,20,34,10.90
2007,06,06,20,35,10.90
2007,06,06,20,36,10.90
2007,06,06,20,37,10.90
2007,06,06,20,38,10.90
2007,06,06,20,39,10.90
2007,06,06,20,40,10.90
2007,06,06,20,41,10.90
2007,06,06,20,42,10.90
2007,06,06,20,43,10.90
2007,06,06,20,44,10.90
2007,06,06,20,45,10.90
2007,06,06,20,46,10.90
2007,06,06,20,47,10.90
2007,06,06,20,48,10.90
2007,06,06,20,49,10.90
2007,06,06,20,50,10.90
2007,06,06,20,51,10.90
2007,06,06,20,52,10.90
2007,06,06,20,53,10.90
2007,06,06,20,54,10.90
2007,06,06,20,55,10.90
2007,06,06,20,56,10.90
2007,06,06,20,57,10.90
2007,06,06,20,58,10.90
2007,06,06,20,59,10.90
2007,06,06,21,00,10.80
2007,06,06,21,01,10.80
2007,06,06,21,02,10.80
2007,06,06,21,03,10.80
2007,06,06,21,04,10.80
2007,06,06,21,05,10.80
2007,06,06,21,06,10.80
2007,06,06,21,07,10.80
2007,06,06,21,08,10.80
2007,06,06,21,09,10.80
2007,06,06,21,10,10.80
2007,06,06,21,11,10.80
2007,06,06,21,12,10.80
2007,06,06,21,13,10.80
2007,06,06,21,14,10.80
2007,06,06,21,15,10.80
2007,06,06,21,16,10.80
2007,06,06,21,17,10.90
2007,06,06,21,18,10.90
2007,06,06,21,19,10.90
2007,06,06,21,20,10.90
2007,06,06,21,21,10.90
2007,06,06,21,22,10.90
2007,06,06,21,23,10.90
2007,06,06,21,24,10.90
2007,06,06,21,25,10.90
2007,06,06,21,26,10.90
2007,06,06,21,27,10.90
2007,06,06,21,28,10.90
2007,06,06,21,29,10.90
2007,06,06,21,30,10.90
2007,06,06,21,31,10.90
2007,06,06,21,32,10.90
2007,06,06,21,33,10.80
2007,06,06,21,34,10.80
2007,06,06,21,35,10.90
2007,06,06,21,36,10.80
2007,06,06,21,37,10.80
2007,06,06,21,38,10.80
2007,06,06,21,39,10.80
2007,06,06,21,40,10.80
2007,06,06,21,41,10.80
2007,06,06,21,42,10.80
2007,06,06,21,43,10.80
2007,06,06,21,44,10.80
2007,06,06,21,45,10.80
2007,06,06,21,46,10.80
2007,06,06,21,47,10.80
2007,06,06,21,48,10.80
2007,06,06,21,49,10.80
2007,06,06,21,50,10.80
2007,06,06,21,51,10.80
2007,06,06,21,52,10.80
2007,06,06,21,53,10.80
2007,06,06,21,54,10.80
2007,06,06,21,55,10.80
2007,06,06,21,56,10.80
2007,06,06,21,57,10.70
2007,06,06,21,58,10.70
2007,06,06,21,59,10.70
2007,06,06,22,00,10.70
2007,06,06,22,01,10.70
2007,06,06,22,02,10.70
2007,06,06,22,03,10.70
2007,06,06,22,04,10.70
2007,06,06,22,05,10.70
2007,06,06,22,06,10.70
2007,06,06,22,07,10.70
2007,06,06,22,08,10.70
2007,06,06,22,09,10.70
2007,06,06,22,10,10.70
2007,06,06,22,11,10.70
2007,06,06,22,12,10.70
2007,06,06,22,13,10.70
2007,06,06,22,14,10.70
2007,06,06,22,15,10.60
2007,06,06,22,16,10.60
2007,06,06,22,17,10.60
2007,06,06,22,18,10.60
2007,06,06,22,19,10.60
2007,06,06,22,20,10.60
2007,06,06,22,21,10.60
2007,06,06,22,22,10.60
2007,06,06,22,23,10.60
2007,06,06,22,24,10.60
2007,06,06,22,25,10.50
2007,06,06,22,26,10.40
2007,06,06,22,27,10.40
2007,06,06,22,28,10.40
2007,06,06,22,29,10.40
2007,06,06,22,30,10.40
2007,06,06,22,31,10.40
2007,06,06,22,32,10.40
2007,06,06,22,33,10.40
2007,06,06,22,34,10.40
2007,06,06,22,35,10.40
2007,06,06,22,36,10.40
2007,06,06,22,37,10.40
2007,06,06,22,38,10.40
2007,06,06,22,39,10.40
2007,06,06,22,40,10.40
2007,06,06,22,41,10.40
2007,06,06,22,42,10.40
2007,06,06,22,43,10.40
2007,06,06,22,44,10.40
2007,06,06,22,45,10.40
2007,06,06,22,46,10.40
2007,06,06,22,47,10.40
2007,06,06,22,48,10.40
2007,06,06,22,49,10.40
2007,06,06,22,50,10.40
2007,06,06,22,51,10.40
2007,06,06,22,52,10.40
2007,06,06,22,53,10.40
2007,06,06,22,54,10.40
2007,06,06,22,55,10.40
2007,06,06,22,56,10.40
2007,06,06,22,57,10.30
2007,06,06,22,58,10.30
2007,06,06,22,59,10.30
2007,06,06,23,00,10.30
2007,06,06,23,01,10.30
2007,06,06,23,02,10.30
2007,06,06,23,03,10.30
2007,06,06,23,04,10.30
2007,06,06,23,05,10.30
2007,06,06,23,06,10.30
2007,06,06,23,07,10.30
2007,06,06,23,08,10.30
2007,06,06,23,09,10.30
2007,06,06,23,10,10.30
2007,06,06,23,11,10.30
2007,06,06,23,12,10.30
2007,06,06,23,13,10.30
2007,06,06,23,14,10.30
2007,06,06,23,15,10.30
2007,06,06,23,16,10.30
2007,06,06,23,17,10.30
2007,06,06,23,18,10.30
2007,06,06,23,19,10.30
2007,06,06,23,20,10.30
2007,06,06,23,21,10.30
2007,06,06,23,22,10.30
2007,06,06,23,23,10.30
2007,06,06,23,24,10.30
2007,06,06,23,25,10.30
2007,06,06,23,26,10.30
2007,06,06,23,27,10.30
2007,06,06,23,28,10.30
2007,06,06,23,29,10.30
2007,06,06,23,30,10.30
2007,06,06,23,31,10.30
2007,06,06,23,32,10.30
2007,06,06,23,33,10.30
2007,06,06,23,34,10.30
2007,06,06,23,35,10.30
2007,06,06,23,36,10.30
2007,06,06,23,37,10.20
2007,06,06,23,38,10.20
2007,06,06,23,39,10.20
2007,06,06,23,40,10.20
2007,06,06,23,41,10.20
2007,06,06,23,42,10.20
2007,06,06,23,43,10.20
2007,06,06,23,44,10.30
2007,06,06,23,45,10.30
2007,06,06,23,46,10.30
2007,06,06,23,47,10.30
2007,06,06,23,48,10.30
2007,06,06,23,49,10.30
2007,06,06,23,50,10.30
2007,06,06,23,51,10.30
2007,06,06,23,52,10.30
2007,06,06,23,53,10.30
2007,06,06,23,54,10.30
2007,06,06,23,55,10.30
2007,06,06,23,56,10.30
2007,06,06,23,57,10.30
2007,06,06,23,58,10.30
2007,06,06,23,59,10.30
